Погода в Мокром Мичкассе

Россия / Пензенская область     53°20′51″N   43°36′12″E
темп.,
°C
ветер,
м/с
пор.,
м/с
влажн.,
%
обл.,
%
осадки,
мм/ч
давл.,
гПа
погр.,
м
19 сентября, вс
вс1900:00+5в3867100 0.0 1025239
03:00+4в3872100 0.0 1024175
06:00+3в4873100 0.0 1024204
09:00+8вюв5754100 0.0 1024540
12:00+10юв5647100 0.0 1023994
15:00+10вюв3753100 0.0 1022690
18:00+9вюв41057100 0.0 1021640
21:00+10вюв51153100 0.1 1020603
20 сентября, пн
пн2000:00+8вюв71372100 1.2 1020540
03:00+7вюв71478100 3.9 1019554
06:00+6вюв91777100 2.5 1018655
09:00+6в101782100 6.3 1018839
12:00+6вюв91788100 2.3 1019918
15:00+6вюв101786100 3.3 1018965
18:00+6вюв91787100 0.5 1017887
21:00+7вюв91785100 0.5 1017857
21 сентября, вт
вт2100:00+7вюв81688100 1.0 1016706
03:00+6вюв71492100 4.3 1016523
06:00+7вюв71294100 0.1 1015451
09:00+8вюв61192100 1.3 1015448
12:00+10юв6986100 1.3 1014585
15:00+13юв5876100 1.4 1013743
18:00+10вюв4790100 0.1 1012209
21:00+10в3796100 0.3 1012248
22 сентября, ср
ср2200:00+10вюв3591100 0.1 1011169
03:00+8в2296100 0.1 101036
06:00+9вюв2498100 0.1 1010107
09:00+12ююз238450 0.1 1009465
12:00+14ююз556649 0.3 10091040
15:00+13юз466632 0.5 1010994
18:00+10зюз377896 0.0 1011291
21:00+9юз2578100 0.0 1012256
23 сентября, чт
чт2300:00+9юз1180100 0.0 101348
03:00+9ю1279100 0.0 101350
06:00+8ю2280100 0.0 101357
09:00+10ююз226888 0.0 1013371
12:00+13юз3455100 0.0 10131147
15:00+12ю235730 0.0 1012796
18:00+11зюз4662100 0.0 1012400
21:00+9ю1165100 0.0 101215